Simultaneous Nadir Overpasses (SNOs) Predictions

Prediction of SNOs between METOP-A and TERRA Satellite Orbit:

Table of predicted SNOs for the next 14.0 days since TLE Epoch: 12/12/2020
Index Date (METOP-A) Time (METOP-A) Lat,Lon (METOP-A) SZA (METOP-A ) Date (TERRA) Time (TERRA) Lat,Lon (TERRA) SZA (TERRA ) Distance(km) Time Diff (sec)
1 12/12/2020 10:53:27 81.37, 64.50 107.33 12/12/2020 10:53:44 81.36, 64.61 107.34 2.40 17
2 12/12/2020 11:44:07 -81.37,-127.97 72.65 12/12/2020 11:43:11 -81.35,-127.87 72.68 2.25 56
3 12/15/2020 06:27:48 81.36, 131.25 107.49 12/15/2020 06:27:57 81.36, 131.16 107.49 1.66 9
4 12/15/2020 07:18:28 -81.35, -61.18 72.49 12/15/2020 07:17:24 -81.36, -61.30 72.53 2.08 64
5 12/18/2020 01:11:31 -81.38, 29.53 72.52 12/18/2020 01:12:45 -81.34, 29.55 72.51 4.45 74
6 12/18/2020 02:02:10 81.36,-162.41 107.55 12/18/2020 02:02:10 81.37,-162.35 107.56 1.27 0
7 12/18/2020 02:52:50 -81.35, 5.19 72.43 12/18/2020 02:51:37 -81.36, 5.22 72.46 1.32 73
8 12/20/2020 20:45:52 -81.37, 96.26 72.49 12/20/2020 20:46:57 -81.36, 96.40 72.45 2.41 65
9 12/20/2020 21:36:32 81.36, -96.11 107.54 12/20/2020 21:36:23 81.37, -95.90 107.56 3.43 9
10 12/23/2020 16:20:12 -81.36, 162.96 72.52 12/23/2020 16:21:09 -81.36, 162.82 72.51 2.46 57



Historial Predications of SNOs between METOP-A and TERRA
